FW3182 Weather Reports


Display with metric or nautical units.
time (UTC)temp
F
wind
direction
speed
MPH
gust
MPH
rain 1hr
in
rain 24hr
in
rain mn
in
humidity
%
barometer
mb
20260831022203 83 89 0.0 1.0 0.00 0.00 0.00 61 1012.8
20260831021704 83 184 0.0 2.0 0.00 0.00 0.00 61 1012.7
20260831021203 83 233 0.0 1.0 0.00 0.00 0.00 60 1012.6
20260831020704 83 208 0.0 3.0 0.00 0.00 0.00 60 1012.6
20260831015204 84 137 0.0 1.0 0.00 0.00 0.00 59 1012.3
20260831014703 84 243 0.0 1.0 0.00 0.00 0.00 59 1012.3
20260831014204 84 112 0.0 0.0 0.00 0.00 0.00 58 1012.3
20260831013703 84 93 0.0 0.0 0.00 0.00 0.00 57 1012.3
20260831013204 84 93 0.0 0.0 0.00 0.00 0.00 57 1012.1
20260831012703 85 93 0.0 0.0 0.00 0.00 0.00 56 1012.1
20260831012204 85 142 0.0 0.0 0.00 0.00 0.00 56 1012.1
20260831011703 85 98 0.0 2.0 0.00 0.00 0.00 55 1012.0
20260831010704 86 190 0.0 1.0 0.00 0.00 0.00 54 1011.8
20260831010204 86 190 0.0 1.0 0.00 0.00 0.00 53 1011.8
20260831005703 86 115 0.0 1.0 0.00 0.00 0.00 52 1011.8
20260831005204 86 191 0.0 1.0 0.00 0.00 0.00 51 1011.8
20260831004704 87 217 0.0 0.0 0.00 0.00 0.00 51 1011.7
20260831003704 88 217 0.0 0.0 0.00 0.00 0.00 51 1011.8
20260831003203 88 221 0.0 0.0 0.00 0.00 0.00 50 1011.7
20260831002704 89 221 0.0 0.0 0.00 0.00 0.00 50 1011.7
20260831002204 89 221 0.0 0.0 0.00 0.00 0.00 49 1011.8
20260831001704 90 221 0.0 0.0 0.00 0.00 0.00 47 1011.8
20260831001203 90 182 0.0 0.0 0.00 0.00 0.00 48 1011.7
20260831000204 91 56 0.0 0.0 0.00 0.00 0.00 48 1011.8
20260830235703 91 56 0.0 1.0 0.00 0.00 0.00 46 1011.9
20260830235203 92 64 0.0 2.0 0.00 0.00 0.00 45 1011.8
20260830234704 92 326 0.0 3.0 0.00 0.00 0.00 45 1011.9
20260830234203 93 124 0.0 1.0 0.00 0.00 0.00 45 1011.9
20260830233704 93 151 0.0 1.0 0.00 0.00 0.00 45 1011.9
20260830233203 93 107 0.0 2.0 0.00 0.00 0.00 44 1011.9
20260830232204 95 95 0.0 0.0 0.00 0.00 0.00 42 1011.8
20260830231703 95 70 0.0 1.0 0.00 0.00 0.00 42 1011.8
20260830231204 96 136 1.0 2.0 0.00 0.00 0.00 41 1011.7
20260830230203 95 165 0.0 3.0 0.00 0.00 0.00 41 1011.6
20260830225704 96 89 1.0 3.0 0.00 0.00 0.00 40 1011.7
20260830225203 96 69 1.0 2.0 0.00 0.00 0.00 39 1011.7
20260830224704 97 204 1.0 6.0 0.00 0.00 0.00 38 1011.7
20260830224204 97 144 1.0 5.0 0.00 0.00 0.00 37 1011.7
20260830223704 97 157 2.0 7.0 0.00 0.00 0.00 37 1011.6
20260830223204 98 137 3.0 5.0 0.00 0.00 0.00 36 1011.7
20260830222703 98 198 2.0 12.0 0.00 0.00 0.00 36 1011.8
20260830221704 99 220 1.0 3.0 0.00 0.00 0.00 34 1011.7
20260830221204 99 188 2.0 6.0 0.00 0.00 0.00 35 1011.7
20260830220703 99 160 3.0 6.0 0.00 0.00 0.00 34 1011.8
20260830220204 100 190 3.0 10.0 0.00 0.00 0.00 35 1011.7
20260830215703 100 183 1.0 3.0 0.00 0.00 0.00 35 1011.7
20260830215204 100 235 1.0 2.0 0.00 0.00 0.00 36 1011.8
20260830214704 99 143 1.0 7.0 0.00 0.00 0.00 35 1011.8
20260830213704 99 141 2.0 5.0 0.00 0.00 0.00 36 1011.9
20260830213204 99 112 2.0 5.0 0.00 0.00 0.00 37 1011.9
20260830212703 99 41 0.0 2.0 0.00 0.00 0.00 36 1011.9
20260830212203 98 340 1.0 7.0 0.00 0.00 0.00 38 1012.0
20260830211704 98 221 4.0 7.0 0.00 0.00 0.00 37 1012.0
20260830211204 98 43 2.0 6.0 0.00 0.00 0.00 38 1012.0
20260830210704 98 134 1.0 5.0 0.00 0.00 0.00 38 1012.0
20260830210203 98 93 5.0 9.0 0.00 0.00 0.00 38 1012.1
20260830205704 99 211 3.0 9.0 0.00 0.00 0.00 37 1012.1
20260830203704 98 84 2.0 12.0 0.00 0.00 0.00 37 1012.4
20260830203203 99 205 3.0 12.0 0.00 0.00 0.00 37 1012.3
20260830202704 98 73 1.0 3.0 0.00 0.00 0.00 38 1012.4
20260830202204 98 243 2.0 5.0 0.00 0.00 0.00 37 1012.4
20260830201703 98 179 1.0 8.0 0.00 0.00 0.00 38 1012.4
20260830201204 98 250 1.0 10.0 0.00 0.00 0.00 40 1012.4
20260830200704 98 199 6.0 12.0 0.00 0.00 0.00 37 1012.4
20260830195704 97 264 2.0 7.0 0.00 0.00 0.00 39 1012.4
20260830195203 97 206 2.0 12.0 0.00 0.00 0.00 42 1012.6
20260830194704 96 263 1.0 6.0 0.00 0.00 0.00 39 1012.6
20260830194204 97 240 5.0 13.0 0.00 0.00 0.00 41 1012.7
20260830193703 97 214 3.0 14.0 0.00 0.00 0.00 40 1012.7
20260830193205 97 167 5.0 12.0 0.00 0.00 0.00 39 1012.9
20260830192704 98 128 1.0 5.0 0.00 0.00 0.00 41 1013.0
20260830192204 97 197 2.0 7.0 0.00 0.00 0.00 42 1013.1
20260830191704 96 168 1.0 7.0 0.00 0.00 0.00 42 1013.1
20260830191203 96 138 5.0 9.0 0.00 0.00 0.00 42 1013.1
20260830190703 96 182 5.0 12.0 0.00 0.00 0.00 41 1013.2
20260830190203 97 169 2.0 9.0 0.00 0.00 0.00 42 1013.3
20260830185704 97 197 2.0 6.0 0.00 0.00 0.00 41 1013.4
20260830184704 95 200 4.0 12.0 0.00 0.00 0.00 43 1013.4
20260830184204 95 213 2.0 10.0 0.00 0.00 0.00 43 1013.4
20260830183703 95 257 3.0 8.0 0.00 0.00 0.00 44 1013.7
20260830183204 95 246 5.0 9.0 0.00 0.00 0.00 45 1013.7
20260830182703 95 59 3.0 10.0 0.00 0.00 0.00 44 1013.8
20260830182203 96 199 5.0 10.0 0.00 0.00 0.00 44 1013.8
20260830181703 95 253 2.0 7.0 0.00 0.00 0.00 44 1013.8
20260830181204 95 160 2.0 8.0 0.00 0.00 0.00 43 1014.0
20260830180704 94 126 2.0 3.0 0.00 0.00 0.00 45 1013.9
20260830180204 93 278 2.0 7.0 0.00 0.00 0.00 46 1014.0
20260830175704 93 180 2.0 8.0 0.00 0.00 0.00 48 1014.0
20260830175203 92 268 2.0 6.0 0.00 0.00 0.00 47 1014.2
20260830174704 92 221 2.0 7.0 0.00 0.00 0.00 47 1014.3
20260830174204 92 102 2.0 9.0 0.00 0.00 0.00 48 1014.2
20260830173204 92 200 3.0 8.0 0.00 0.00 0.00 48 1014.4
20260830172704 92 254 4.0 9.0 0.00 0.00 0.00 48 1014.5
20260830171703 91 229 1.0 12.0 0.00 0.00 0.00 49 1014.5
20260830171203 90 184 2.0 14.0 0.00 0.00 0.00 50 1014.7
20260830170203 90 193 3.0 12.0 0.00 0.00 0.00 50 1014.7
20260830165704 90 209 2.0 9.0 0.00 0.00 0.00 50 1014.8
20260830165204 90 154 4.0 9.0 0.00 0.00 0.00 51 1014.9
20260830164703 89 197 5.0 12.0 0.00 0.00 0.00 51 1015.0
20260830164204 89 195 3.0 10.0 0.00 0.00 0.00 52 1015.0
20260830163704 89 225 2.0 10.0 0.00 0.00 0.00 52 1015.1
20260830163204 89 139 3.0 9.0 0.00 0.00 0.00 52 1015.3
20260830162703 88 179 2.0 13.0 0.00 0.00 0.00 53 1015.3
20260830161704 88 183 2.0 8.0 0.00 0.00 0.00 55 1015.1
20260830161203 87 195 3.0 10.0 0.00 0.00 0.00 55 1015.2
20260830160204 86 213 5.0 12.0 0.00 0.00 0.00 57 1015.3
20260830155703 86 197 3.0 9.0 0.00 0.00 0.00 56 1015.2
20260830155203 86 194 2.0 12.0 0.00 0.00 0.00 58 1015.1
20260830154704 86 194 5.0 10.0 0.00 0.00 0.00 57 1015.2
20260830154204 86 234 4.0 9.0 0.00 0.00 0.00 57 1015.1
20260830153704 85 197 1.0 2.0 0.00 0.00 0.00 59 1015.1
20260830153203 84 203 1.0 6.0 0.00 0.00 0.00 60 1015.2
20260830152704 84 200 3.0 6.0 0.00 0.00 0.00 59 1015.1
20260830152203 84 138 1.0 3.0 0.00 0.00 0.00 60 1015.0
20260830151703 83 144 1.0 3.0 0.00 0.00 0.00 61 1015.1
20260830151204 83 160 0.0 3.0 0.00 0.00 0.00 63 1015.1
20260830150704 83 219 2.0 3.0 0.00 0.00 0.00 62 1015.1
20260830150203 82 212 1.0 3.0 0.00 0.00 0.00 63 1015.1
20260830145704 81 269 0.0 2.0 0.00 0.00 0.00 64 1015.1
20260830145203 80 189 0.0 5.0 0.00 0.00 0.00 65 1015.1
20260830144703 80 190 0.0 6.0 0.00 0.00 0.00 65 1015.1
20260830144204 80 198 0.0 3.0 0.00 0.00 0.00 66 1015.1
20260830143203 79 197 1.0 3.0 0.00 0.00 0.00 65 1015.2
20260830142704 79 135 0.0 2.0 0.00 0.00 0.00 66 1015.2
20260830142203 78 157 1.0 2.0 0.00 0.00 0.00 66 1015.2
20260830141703 78 150 1.0 2.0 0.00 0.00 0.00 66 1015.2
20260830140703 77 190 0.0 2.0 0.00 0.00 0.00 67 1015.1
20260830140203 76 126 1.0 3.0 0.00 0.00 0.00 68 1015.1
20260830135704 76 170 1.0 5.0 0.00 0.00 0.00 69 1015.2
20260830134703 75 179 1.0 3.0 0.00 0.00 0.00 70 1015.2
20260830134203 75 127 1.0 3.0 0.00 0.00 0.00 69 1015.2
20260830133704 75 144 1.0 3.0 0.00 0.00 0.00 70 1015.3
20260830133204 74 108 1.0 3.0 0.00 0.00 0.00 71 1015.3
20260830132704 74 139 0.0 1.0 0.00 0.00 0.00 72 1015.3
20260830132204 73 82 0.0 1.0 0.00 0.00 0.00 74 1015.4
20260830131703 72 156 1.0 3.0 0.00 0.00 0.00 75 1015.4
20260830131203 71 219 0.0 2.0 0.00 0.00 0.00 77 1015.5
20260830130704 70 231 0.0 2.0 0.00 0.00 0.00 79 1015.4
20260830125703 68 72 0.0 0.0 0.00 0.00 0.00 82 1015.3
20260830125204 67 72 0.0 0.0 0.00 0.00 0.00 83 1015.3
20260830124704 67 72 0.0 0.0 0.00 0.00 0.00 83 1015.2
20260830124204 67 72 0.0 0.0 0.00 0.00 0.00 84 1015.2
20260830123703 66 72 0.0 0.0 0.00 0.00 0.00 84 1015.2
20260830123204 66 72 0.0 0.0 0.00 0.00 0.00 85 1015.1
20260830122204 66 72 0.0 0.0 0.00 0.00 0.00 85 1015.1
20260830121704 66 72 0.0 0.0 0.00 0.00 0.00 85 1015.1
20260830121203 66 72 0.0 0.0 0.00 0.00 0.00 85 1015.0
20260830120704 66 72 0.0 0.0 0.00 0.00 0.00 84 1015.0
20260830120204 66 72 0.0 0.0 0.00 0.00 0.00 84 1015.0
20260830115704 66 72 0.0 0.0 0.00 0.00 0.00 84 1014.9
20260830115203 66 72 0.0 0.0 0.00 0.00 0.00 84 1014.8
20260830114703 66 72 0.0 0.0 0.00 0.00 0.00 83 1014.8
20260830114203 66 72 0.0 0.0 0.00 0.00 0.00 83 1014.8
20260830113704 67 72 0.0 0.0 0.00 0.00 0.00 83 1014.7
20260830113204 67 72 0.0 0.0 0.00 0.00 0.00 83 1014.7
20260830112704 67 72 0.0 0.0 0.00 0.00 0.00 82 1014.7
20260830112204 68 72 0.0 0.0 0.00 0.00 0.00 81 1014.7
20260830111704 68 72 0.0 0.0 0.00 0.00 0.00 80 1014.6
20260830111204 68 72 0.0 0.0 0.00 0.00 0.00 80 1014.6
20260830110704 68 72 0.0 0.0 0.00 0.00 0.00 80 1014.6
20260830110204 68 72 0.0 0.0 0.00 0.00 0.00 79 1014.6
20260830105703 68 72 0.0 0.0 0.00 0.00 0.00 79 1014.5
20260830104703 68 72 0.0 0.0 0.00 0.00 0.00 80 1014.5
20260830104204 68 72 0.0 0.0 0.00 0.00 0.00 80 1014.5
20260830103704 68 72 0.0 0.0 0.00 0.00 0.00 80 1014.5
20260830103204 68 72 0.0 0.0 0.00 0.00 0.00 81 1014.4
20260830102704 68 88 0.0 0.0 0.00 0.00 0.00 81 1014.5
20260830102204 68 88 0.0 0.0 0.00 0.00 0.00 81 1014.4
20260830101204 68 88 0.0 0.0 0.00 0.00 0.00 82 1014.6
20260830100204 68 88 0.0 0.0 0.00 0.00 0.00 82 1014.6
20260830095704 68 88 0.0 0.0 0.00 0.00 0.00 82 1014.7
20260830095204 68 88 0.0 0.0 0.00 0.00 0.00 81 1014.6
20260830094703 68 88 0.0 0.0 0.00 0.00 0.00 81 1014.7
20260830094203 68 88 0.0 0.0 0.00 0.00 0.00 81 1014.6
20260830093704 68 88 0.0 0.0 0.00 0.00 0.00 81 1014.6
20260830093204 68 88 0.0 0.0 0.00 0.00 0.00 81 1014.6
20260830092704 68 88 0.0 0.0 0.00 0.00 0.00 82 1014.7
20260830092204 68 88 0.0 0.0 0.00 0.00 0.00 81 1014.7
20260830091704 68 88 0.0 0.0 0.00 0.00 0.00 81 1014.7
20260830091203 68 88 0.0 0.0 0.00 0.00 0.00 81 1014.8
20260830090704 68 88 0.0 0.0 0.00 0.00 0.00 81 1014.8
20260830090204 68 88 0.0 0.0 0.00 0.00 0.00 81 1014.7
20260830085704 68 88 0.0 0.0 0.00 0.00 0.00 81 1014.8
20260830085204 68 88 0.0 0.0 0.00 0.00 0.00 80 1014.8
20260830084703 68 88 0.0 0.0 0.00 0.00 0.00 80 1014.8
20260830084203 68 88 0.0 0.0 0.00 0.00 0.00 80 1014.8
20260830083704 68 88 0.0 0.0 0.00 0.00 0.00 80 1014.8
20260830083203 69 88 0.0 0.0 0.00 0.00 0.00 80 1014.7
20260830082704 69 88 0.0 0.0 0.00 0.00 0.00 79 1014.7
20260830082204 69 88 0.0 0.0 0.00 0.00 0.00 79 1014.6
20260830080204 69 88 0.0 0.0 0.00 0.00 0.00 78 1014.7
20260830075704 69 88 0.0 0.0 0.00 0.00 0.00 78 1014.6
20260830075204 69 88 0.0 0.0 0.00 0.00 0.00 79 1014.7
20260830074704 69 88 0.0 0.0 0.00 0.00 0.00 78 1014.6
20260830074203 69 88 0.0 0.0 0.00 0.00 0.00 78 1014.7
20260830072703 70 87 0.0 0.0 0.00 0.00 0.00 77 1014.6
20260830072204 70 87 0.0 0.0 0.00 0.00 0.00 76 1014.5
20260830071704 70 87 0.0 0.0 0.00 0.00 0.00 76 1014.6
20260830071204 71 87 0.0 0.0 0.00 0.00 0.00 75 1014.7
20260830070204 72 87 0.0 0.0 0.00 0.00 0.00 74 1014.7
20260830065204 72 87 0.0 0.0 0.00 0.00 0.00 73 1014.8
20260830064704 72 87 0.0 0.0 0.00 0.00 0.00 73 1014.8
20260830064203 72 169 0.0 0.0 0.00 0.00 0.00 73 1014.7
20260830063704 72 174 0.0 0.0 0.00 0.00 0.00 72 1014.6
20260830063204 72 175 0.0 0.0 0.00 0.00 0.00 72 1014.7
20260830062704 73 75 0.0 0.0 0.00 0.00 0.00 72 1014.7
20260830062203 73 67 0.0 0.0 0.00 0.00 0.00 71 1014.7
20260830061704 73 75 0.0 0.0 0.00 0.00 0.00 71 1014.7
20260830061203 73 75 0.0 0.0 0.00 0.00 0.00 71 1014.7
20260830060704 73 75 0.0 0.0 0.00 0.00 0.00 71 1014.6
20260830060204 74 75 0.0 0.0 0.00 0.00 0.00 70 1014.6
20260830055703 74 77 0.0 0.0 0.00 0.00 0.00 70 1014.5
20260830055204 74 79 0.0 0.0 0.00 0.00 0.00 70 1014.5
20260830054203 74 63 0.0 0.0 0.00 0.00 0.00 69 1014.4
20260830053704 74 82 0.0 0.0 0.00 0.00 0.00 69 1014.5
20260830052703 74 151 0.0 0.0 0.00 0.00 0.00 68 1014.4
20260830051204 74 178 0.0 0.0 0.00 0.00 0.00 68 1014.4
20260830050704 74 189 0.0 0.0 0.00 0.00 0.00 67 1014.5
20260830050204 75 189 0.0 0.0 0.00 0.00 0.00 67 1014.5
20260830045703 75 189 0.0 1.0 0.00 0.00 0.00 66 1014.5
20260830045204 75 154 0.0 0.0 0.00 0.00 0.00 66 1014.6
20260830043203 77 158 0.0 0.0 0.00 0.00 0.00 63 1014.6
20260830042703 77 158 0.0 0.0 0.00 0.00 0.00 62 1014.6
20260830041703 78 129 0.0 0.0 0.00 0.00 0.00 62 1014.6
20260830041204 78 134 0.0 0.0 0.00 0.00 0.00 62 1014.5
20260830040204 78 181 0.0 2.0 0.00 0.00 0.00 61 1014.6
20260830035203 78 139 1.0 3.0 0.00 0.00 0.00 60 1014.7
20260830034704 78 160 1.0 2.0 0.00 0.00 0.00 59 1014.6
20260830034204 78 123 1.0 2.0 0.00 0.00 0.00 59 1014.7
20260830033703 78 192 0.0 3.0 0.00 0.00 0.00 58 1014.8
20260830033204 78 150 1.0 3.0 0.00 0.00 0.00 58 1014.8
20260830032703 78 190 1.0 3.0 0.00 0.00 0.00 57 1014.8
20260830031204 78 141 1.0 3.0 0.00 0.00 0.00 56 1014.7
20260830030704 79 180 0.0 1.0 0.00 0.00 0.00 55 1014.8
20260830030204 79 143 0.0 3.0 0.00 0.00 0.00 55 1014.7
20260830025204 79 124 0.0 1.0 0.00 0.00 0.00 54 1014.6
20260830024704 78 118 0.0 2.0 0.00 0.00 0.00 54 1014.6
20260830024204 78 201 0.0 1.0 0.00 0.00 0.00 54 1014.6
20260830023704 78 140 0.0 1.0 0.00 0.00 0.00 54 1014.4
20260830023204 78 185 0.0 1.0 0.00 0.00 0.00 54 1014.4
20260830022704 78 201 0.0 0.0 0.00 0.00 0.00 55 1014.4